[[{"header":{"parameterUnit":"m.s-1","parameterCategory":1,"la1":30.2991,"la2":30.254,"lo1":-89.0895,"lo2":-89.0444,"dy":0.0017,"dx":0.0017,"nx":28,"ny":28,"refTime":"2025-05-29T21:00:00:Z","depth":0,"parameterNumber":2,"parameterNumberName":"U-component_of_WINDS"},"data":[0,0,0,0,0,0,0,0,0,0,0,0,0,0,0,0,0,0,0,0,0,0,0,0,0,0,0,0,0,0,0,0,0,0,0,0,0,0,0,0,0,0,0,0,0,0,0,0,0,0,0,0,0,0,0,0,0,0,3.9795,3.9797,0,3.9985,3.9988,3.999,4.0001,3.9999,3.9997,3.9995,4.0191,4.0198,4.0206,0,0,0,0,0,0,0,0,0,0,0,0,0,3.9445,3.9451,3.9795,3.9797,3.98,3.9985,3.9988,3.999,4.0002,3.9999,3.9997,3.9994,4.0189,4.0198,4.0206,0,0,0,0,0,0,0,0,0,0,0,0,0,3.9612,3.9453,3.9794,3.9828,3.9833,3.9985,3.9988,3.9991,4.0002,3.9999,3.9996,3.9993,4.0186,4.0197,4.0208,4.034,0,0,4.0241,4.0245,0,0,0,0,0,0,0,0,3.9603,3.9625,3.982,3.9826,3.9831,3.9966,3.9936,4.0108,4.0003,3.9938,3.9995,3.9991,4.0119,4.0135,4.0178,4.0349,4.0357,4.0242,4.0248,4.0253,4.0256,0,0,0,0,0,0,0,3.9591,3.9617,3.987,3.9823,3.983,3.9834,3.9855,3.9969,4.0045,3.9943,3.9945,3.9967,4.0122,4.0168,4.0183,4.036,4.0241,4.0251,4.0258,4.0262,4.0653,4.0656,0,0,0,0,0,0,3.9573,3.9607,3.9864,3.9876,3.9707,3.9843,3.9866,3.9926,4.0043,4.0058,3.997,3.9967,4.0151,4.017,4.019,4.0354,4.0253,4.0263,4.0269,4.0649,4.0653,4.0658,0,0,0,0,0,0,3.9565,3.9596,3.9856,3.9742,3.9776,3.9853,3.9921,3.9932,3.9978,4.0063,4.0077,4.0003,4.0149,4.0175,4.0303,4.0361,4.0268,4.0278,4.0644,4.065,4.0655,4.0683,0,0,0,0,0,0,3.9555,3.9593,3.9642,3.9743,3.9782,3.9965,3.9924,3.9938,3.9996,3.9995,4.0098,4.0112,4.0148,4.0287,4.0314,4.0374,4.0286,4.0639,4.0647,4.0654,4.0677,4.0689,4.0699,0,0,0,0,0,3.9543,3.9642,3.9645,3.9676,3.9845,3.9968,3.9991,4.003,4.0001,4.0053,4.0108,4.0108,4.0351,4.03,4.033,4.0395,4.0636,4.0645,4.0653,4.0672,4.0686,4.0698,0,0,0,0,0,0,3.9545,3.9656,3.966,3.9795,3.9872,3.997,4.0036,4.0044,4.0131,4.0126,4.0173,4.0196,4.0323,4.0372,4.0314,4.0531,4.049,4.0505,4.0494,4.0508,4.0519,4.0504,4.0295,0,0,0,0,0,3.9562,3.9652,3.9744,3.9854,3.9893,3.9958,4.0013,4.0037,4.0119,4.0152,4.0217,4.0297,4.0392,4.0453,4.0544,4.0685,4.0708,4.0745,4.0756,4.0764,4.0776,4.0857,4.0875,4.0686,4.0686,4.0686,0,0,3.9596,3.9668,3.9721,3.9856,3.9919,4.0013,3.9985,4.0084,4.0155,4.0167,4.0293,4.0344,4.0437,4.0572,4.0635,4.0617,4.0834,4.0775,4.0781,4.0789,4.0868,4.0886,4.0901,4.0692,4.0691,4.069,0,0,3.9707,3.977,3.9869,3.9934,4.003,4.0073,4.0097,4.0195,4.023,4.0356,4.0369,4.0454,4.0615,4.0682,4.0737,4.0878,4.0882,4.0907,4.0963,4.1041,4.1056,4.1069,4.1121,4.1139,4.0919,4.0919,4.0919,0,3.9738,3.9878,3.992,4.002,4.008,4.0097,4.02,4.026,4.0381,4.0423,4.0401,4.0606,4.067,4.0823,4.0858,4.0901,4.0932,4.0894,4.105,4.1064,4.1077,4.1127,4.1146,4.0921,4.0921,4.0921,4.0921,0,3.9912,4.001,4.0079,4.0197,4.0265,4.0366,4.0424,4.0488,4.0508,4.0555,4.0685,4.0763,4.0872,4.091,4.093,4.1067,4.1053,4.104,4.1,4.1097,4.1145,4.1164,4.0925,4.0924,4.0923,4.0923,0,0,4.0027,4.0169,4.0194,4.0249,4.0358,4.0435,4.0538,4.0645,4.07,4.0784,4.0873,4.1011,4.1001,4.1064,4.1092,4.116,4.1269,4.114,4.1142,4.1161,4.1427,4.1436,4.1457,4.1273,4.1277,4.128,4.142,0,4.0151,4.0334,4.0376,4.0534,4.0626,4.0646,4.0736,4.0814,4.0861,4.0947,4.1,4.1097,4.1076,4.1114,4.1183,4.1241,4.1323,4.1232,4.1357,4.1361,4.1333,4.1482,4.149,4.1618,4.1438,4.1441,4.1444,0,4.0318,4.0407,4.0574,4.0674,4.0715,4.0795,4.0898,4.098,4.107,4.11,4.1171,4.1193,4.1304,4.1259,4.1413,4.135,4.1404,4.1441,4.1447,4.146,4.1408,4.1499,4.1659,4.1679,4.1473,4.1471,4.1469,0,4.0387,4.0548,4.067,4.0716,4.0836,4.0892,4.0945,4.1031,4.1094,4.1185,4.1227,4.1329,4.1385,4.1465,4.1515,4.1477,4.1665,4.1624,4.1694,4.1693,4.1731,4.1728,4.1903,4.1767,4.1767,4.1766,4.1766,0,4.052,4.0621,4.0703,4.0777,4.0893,4.0942,4.1056,4.1109,4.1186,4.1273,4.1297,4.1378,4.1439,4.1529,4.1569,4.1692,4.1717,4.1745,4.1754,4.1743,4.1739,4.1778,4.177,4.1771,4.177,4.1769,4.1768,0,4.0615,4.0673,4.0807,4.091,4.0939,4.102,4.1109,4.1183,4.1232,4.1342,4.1371,4.1448,4.1556,4.1614,4.1749,4.1776,4.1913,4.1918,4.1882,4.1886,4.1953,4.1946,4.2159,4.219,4.2033,4.2035,4.2036,0,4.0695,4.0774,4.0887,4.0947,4.1001,4.1097,4.1161,4.1214,4.1281,4.1391,4.1453,4.1562,4.1652,4.1824,4.1893,4.1997,4.2004,4.2072,4.202,4.2007,4.2006,4.2001,4.2009,4.2081,4.2082,4.2083,4.2084,0,4.0833,4.0859,4.0951,4.1055,4.1131,4.1215,4.1298,4.1346,4.1413,4.1487,4.1598,4.1668,4.1807,4.1916,4.2026,4.2082,4.2095,4.2101,4.2122,4.2111,4.2087,4.2102,4.1907,4.2095,4.2094,4.2093,4.2092,4.2092,4.0924,4.0996,4.1088,4.119,4.1259,4.1337,4.1413,4.1472,4.1565,4.1682,4.1709,4.1826,4.1917,4.2067,4.2126,4.2219,4.2206,4.2237,4.2245,4.2252,4.2255,4.2073,4.224,4.224,4.2239,4.2239,4.2239,0,4.1064,4.1124,4.1218,4.1335,4.1416,4.1423,4.1516,4.1584,4.1687,4.1771,4.186,4.1988,4.2095,4.2174,4.2283,4.2343,4.2352,4.237,4.2366,4.2379,4.226,4.2231,4.2361,4.2361,4.2361,4.2361,4.2361,4.2361,4.1146,4.1269,4.1306,4.1465,4.1525,4.164,4.1693,4.1766,4.1834,4.1976,4.2065,4.2116,4.2199,4.2315,4.2413,4.2434,4.2473,4.2491,4.2512,4.24,4.2387,4.2374,4.2347,4.2499,4.2499,4.2622,4.2623,4.2624]},{"header":{"parameterUnit":"m.s-1","parameterCategory":1,"la1":30.2991,"la2":30.254,"lo1":-89.0895,"lo2":-89.0444,"dy":0.0017,"dx":0.0017,"nx":28,"ny":28,"refTime":"2025-05-29T21:00:00:Z","depth":0,"parameterNumber":3,"parameterNumberName":"V-component_of_WINDS"},"data":[0,0,0,0,0,0,0,0,0,0,0,0,0,0,0,0,0,0,0,0,0,0,0,0,0,0,0,0,0,0,0,0,0,0,0,0,0,0,0,0,0,0,0,0,0,0,0,0,0,0,0,0,0,0,0,0,0,0,0.9071,0.9073,0,0.9214,0.9215,0.9217,0.917,0.9167,0.9163,0.916,0.9315,0.9322,0.9329,0,0,0,0,0,0,0,0,0,0,0,0,0,0.8767,0.8773,0.9071,0.9073,0.9075,0.9213,0.9215,0.9217,0.917,0.9166,0.9163,0.9159,0.9313,0.9321,0.933,0,0,0,0,0,0,0,0,0,0,0,0,0,0.8903,0.8774,0.9071,0.9068,0.9069,0.9213,0.9215,0.9218,0.9171,0.9166,0.9162,0.9157,0.931,0.9321,0.9331,0.949,0,0,0.9363,0.9368,0,0,0,0,0,0,0,0,0.8896,0.8915,0.9066,0.9068,0.907,0.9169,0.9165,0.9309,0.9172,0.9133,0.916,0.9155,0.9271,0.9285,0.9322,0.9497,0.9504,0.9364,0.9371,0.9375,0.9378,0,0,0,0,0,0,0,0.8886,0.8908,0.9128,0.9069,0.9071,0.9062,0.9076,0.9192,0.9227,0.9136,0.9132,0.9149,0.9271,0.9312,0.9325,0.9506,0.9364,0.9373,0.938,0.9384,0.9818,0.9823,0,0,0,0,0,0,0.8875,0.8901,0.9123,0.9132,0.8969,0.9071,0.9087,0.9142,0.9225,0.9233,0.9153,0.9147,0.9296,0.9313,0.933,0.9521,0.9375,0.9385,0.9391,0.9813,0.9819,0.9825,0,0,0,0,0,0,0.8868,0.8895,0.9117,0.9015,0.9043,0.9081,0.9143,0.9147,0.9187,0.9238,0.9245,0.9188,0.9293,0.9316,0.945,0.9525,0.939,0.9399,0.9807,0.9815,0.9822,0.9903,0,0,0,0,0,0,0.886,0.8893,0.8951,0.9017,0.9049,0.9232,0.9148,0.9153,0.9205,0.9198,0.9273,0.9281,0.9291,0.9434,0.946,0.9537,0.9407,0.98,0.9811,0.982,0.9894,0.9913,0.9929,0,0,0,0,0,0.8849,0.8971,0.8955,0.8982,0.9122,0.9236,0.9255,0.9262,0.9211,0.9271,0.9304,0.9278,0.9513,0.9448,0.9477,0.9559,0.9796,0.9808,0.9819,0.9886,0.9909,0.9928,0,0,0,0,0,0,0.8916,0.8979,0.8962,0.9108,0.9167,0.9228,0.9304,0.9286,0.9363,0.9353,0.9361,0.9379,0.9516,0.9551,0.9478,0.9717,0.9647,0.9665,0.9688,0.9711,0.9728,0.9716,0.9416,0,0,0,0,0,0.8947,0.9032,0.9084,0.9208,0.9238,0.9266,0.9316,0.9316,0.9379,0.9404,0.9447,0.9511,0.9599,0.9657,0.9741,0.9899,0.9915,0.997,0.9987,1.0001,1.0017,1.0103,1.0127,0.9864,0.9863,0.9863,0,0,0.9014,0.9059,0.9112,0.9222,0.9268,0.9357,0.9287,0.9386,0.9453,0.942,0.9548,0.9582,0.9654,0.9801,0.9867,0.9834,1.0093,1.0016,1.0027,1.0035,1.0117,1.0142,1.0164,0.9872,0.987,0.9869,0,0,0.918,0.9222,0.9329,0.9376,0.9445,0.9463,0.9489,0.9553,0.9573,0.9701,0.9678,0.976,0.9912,0.9964,1.001,1.0197,1.0176,1.0224,1.0316,1.0399,1.042,1.0438,1.0504,1.0528,1.024,1.024,1.024,0,0.9255,0.9385,0.9388,0.9487,0.9537,0.9508,0.9618,0.9665,0.9759,0.9795,0.9756,0.9945,0.9992,1.015,1.0195,1.0234,1.0265,1.0215,1.0416,1.0435,1.0452,1.0515,1.054,1.0245,1.0245,1.0244,1.0244,0,0.9474,0.9565,0.9644,0.9732,0.9791,0.9895,0.9916,0.9976,0.9971,0.9994,1.0126,1.0181,1.0275,1.0313,1.0311,1.0471,1.0448,1.0413,1.0343,1.0483,1.0542,1.0566,1.0253,1.0251,1.0249,1.0248,0,0,0.9685,0.9772,0.9801,0.984,0.9914,0.9986,1.0091,1.018,1.0231,1.0298,1.0386,1.0515,1.0482,1.0535,1.0539,1.0612,1.0756,1.0568,1.057,1.06,1.0935,1.096,1.0988,1.0742,1.0747,1.0751,1.0929,0,0.9857,1.0035,1.004,1.0205,1.029,1.0265,1.0356,1.0413,1.0438,1.0516,1.0545,1.0635,1.0586,1.0617,1.0689,1.0723,1.0823,1.071,1.0826,1.083,1.0807,1.1019,1.1046,1.1211,1.0952,1.0956,1.0959,0,1.008,1.0149,1.0321,1.0382,1.0419,1.05,1.0581,1.0656,1.0721,1.0734,1.0792,1.0785,1.0894,1.0821,1.0972,1.0895,1.0944,1.0968,1.0974,1.0985,1.0902,1.1034,1.1264,1.1288,1.0996,1.0993,1.099,0,1.0215,1.0353,1.0473,1.0508,1.0583,1.064,1.0675,1.0734,1.0787,1.0861,1.0895,1.0982,1.1029,1.1097,1.1114,1.106,1.1265,1.1194,1.128,1.128,1.1323,1.132,1.1563,1.1357,1.1356,1.1356,1.1355,0,1.0405,1.0511,1.0535,1.0609,1.0727,1.0734,1.0853,1.0884,1.0937,1.1018,1.1004,1.1081,1.11,1.1182,1.1197,1.1319,1.1341,1.1356,1.1358,1.1356,1.1354,1.1387,1.1376,1.1362,1.1361,1.136,1.1359,0,1.0575,1.0595,1.0725,1.0784,1.0802,1.0887,1.0939,1.1011,1.1034,1.1137,1.1162,1.12,1.1295,1.1319,1.1434,1.1444,1.1588,1.1581,1.1565,1.1565,1.1649,1.164,1.192,1.1957,1.1728,1.173,1.1732,0,1.0694,1.0775,1.0842,1.0894,1.093,1.1014,1.1067,1.1079,1.1135,1.1215,1.1278,1.1371,1.1446,1.16,1.1639,1.1727,1.1721,1.1813,1.1734,1.1729,1.1721,1.1715,1.1723,1.1828,1.183,1.1832,1.1834,0,1.0903,1.0908,1.0984,1.1064,1.1127,1.1191,1.1253,1.1297,1.1317,1.1382,1.1477,1.1535,1.1651,1.1745,1.1833,1.1872,1.1857,1.1858,1.1883,1.1881,1.1868,1.1875,1.1605,1.1852,1.185,1.1849,1.1848,1.1847,1.105,1.112,1.1178,1.1263,1.131,1.1368,1.1438,1.1469,1.1547,1.164,1.1643,1.1748,1.1812,1.1928,1.1972,1.2055,1.2028,1.2063,1.2072,1.208,1.2087,1.1855,1.2072,1.2072,1.2071,1.2071,1.207,0,1.1256,1.1292,1.137,1.1455,1.1523,1.15,1.1567,1.1626,1.1717,1.1776,1.1849,1.196,1.205,1.2096,1.2186,1.2244,1.2239,1.2267,1.2262,1.2271,1.2107,1.2076,1.2269,1.2269,1.2269,1.2269,1.2269,1.2269,1.1371,1.1488,1.1501,1.1642,1.1678,1.1777,1.1817,1.1871,1.1918,1.2041,1.2115,1.2143,1.2198,1.2292,1.2374,1.2385,1.2419,1.245,1.2458,1.2303,1.2283,1.2264,1.2235,1.2458,1.2458,1.2615,1.2616,1.2618]}]]